SPOT 5

Satellite information

Favourite Embed

Satellite Type and Status

PAYLOADIN ORBIT

Key statistics

Satellite SPOT 5 at a glance.

Uptime

8519

Days in orbit

Revolutions

≈ 14.5

Per day

Orbit

SSO

Sun Synchronous Orbit

Inclination

98.0

Latest

Satellite identification and parameters

Extended collection of information and parameters for SPOT 5.

Object identification

Identified? True

Debris? False

Object name: SPOT 5

International designator: 2002-021A

Object number (NORAD): 27421

Object ID (CCSDS): 27421

Country: FRANCE (FR)

Current information (Y/N): Y

RCS size: LARGE

Orbital parameters

Period: 99.012 minutes

Inclination: 98.0292 deg

SMA: 7089.555 km

Apoapsis: 804.756 km

Periapsis: 618.083 km

RAAN: 287.8871 deg

Eccentricy: 0.01316537

Argument of periapsis: 102.4793 deg

Mean anomaly: 259.1171 deg

Mean motion: 14.54367999 rev/day

Mean motion (dot): 0.00000662 rev/day2

B* drag term: 0.00014893009 1/REarth

Two-line elements (TLE)

Creation date: Aug. 30, 2025, 3:38 a.m.

Reference frame: TEME

Reference center: EARTH

Epoch: Aug. 29, 2025, 5:07 p.m. UTC

TLE line 0: 0 SPOT 5

TLE line 1: 1 27421U 02021A 25241.71351581 .00000662 00000-0 14893-3 0 9998

TLE line 2: 2 27421 98.0292 287.8871 0131654 102.4793 259.1171 14.54367999220473

Live tracking on map

Real-time ground track for satellite SPOT 5.

In-orbit conjunctions

A list of the most updated potential collisions computed for object SPOT 5.

Target Orbit TCA Probability of collision Miss distance Type
CZ-6A DEB LEO 2025-03-31 22:25:12 0.0004149032 687.0 (m) DEBRIS
FENGYUN 1C DEB SSO 2025-01-03 06:45:57 0.0002393269 413.0 (m) DEBRIS
SL-24 R/B SSO 2024-11-23 01:32:53 0.0004085705 483.0 (m) ROCKET BODY
SL-16 DEB LEO 2024-09-04 23:43:02 0.001672898 147.0 (m) DEBRIS
CZ-6A DEB SSO 2024-05-28 19:08:20 0.0002701387 722.0 (m) DEBRIS

Associated space launch

The main instrument was the HRVIR imaging camera payload including a 2.5-meter resolution imager. A secondary experiment was the 5-band VEGETATION-2 instrument with 1-km resolution.

SPOT 5 was lifted into orbit during the mission ‘Ariane 42P | SPOT 5’, on board a Ariane 42P space rocket.

The launch took place on May 4, 2002, 1:31 a.m. from Ariane Launch Area 2.

For more information about the launch, click the button.

Launch to space Ariane 42P | SPOT 5
Ariane 42P | SPOT 5

Agency: N/A

Status: Launch Successful

Launch date: May 4, 2002, 1:31 a.m. UTC

Rocket: Ariane 42P

Launch pad: Ariane Launch Area 2

Location: Guiana Space Centre, French Guiana

...

Latest news about this satellite

There are no fresh news available about this satellite. Check back as we update our databases every day.


Newsletter sign-up

Weekly statistics, charts and insights to help you stay on top of the space industry.